Location: Bidwell Hollow
(37.7387°N, 90.1707°W)
Time: 01:11:45
(UTC+00:00)

Tiros 1 - All Passes

Search period start: 14 May 2026 00:00
Search period end: 24 May 2026 00:00
Orbit: 618 x 648 km, 48.4° (Epoch: 13 May)

Date Brightness Start Highest point End Pass type
(mag) Time Alt. Az. Time Alt. Az. Time Alt. Az.
14 May - 05:15:44 10° SW 05:20:15 56° SE 05:24:45 10° ENE visible
14 May - 06:58:03 10° W 07:02:18 35° NNW 07:06:32 10° NE visible
14 May - 08:41:38 10° NW 08:45:08 21° N 08:48:38 10° NE visible
14 May - 10:24:00 10° NW 10:28:04 30° NNE 10:32:06 10° E visible
14 May - 12:05:42 10° WNW 12:10:15 75° SW 12:14:47 10° SE daylight
14 May - 13:49:47 10° WSW 13:51:30 12° SW 13:53:12 10° SSW daylight
15 May - 03:56:46 10° S 04:00:12 21° SE 04:03:38 10° E night (unlit)
15 May - 05:37:06 10° WSW 05:41:43 73° NNW 05:46:19 10° NE visible
15 May - 07:20:19 10° WNW 07:24:10 25° NNW 07:27:59 10° NE visible
15 May - 09:03:33 10° NW 09:07:09 22° N 09:10:44 10° ENE visible
15 May - 10:45:24 10° NW 10:49:50 48° NNE 10:54:13 10° ESE daylight
15 May - 12:27:29 10° WNW 12:31:36 34° SW 12:35:43 10° SSE daylight
16 May - 04:17:02 10° SSW 04:21:27 44° SE 04:25:50 10° ENE night (unlit)
16 May - 05:59:00 10° W 06:03:22 41° NNW 06:07:43 10° NE visible
16 May - 07:42:35 10° NW 07:46:08 22° N 07:49:40 10° NE visible
16 May - 09:25:10 10° NW 09:29:05 28° NNE 09:33:00 10° ENE visible
16 May - 11:06:51 10° NW 11:11:25 88° NE 11:15:57 10° SE daylight
16 May - 12:50:04 10° W 12:52:47 16° SW 12:55:29 10° SSW daylight
17 May - 02:58:36 10° S 03:01:28 16° SE 03:04:19 10° E night (unlit)
17 May - 04:38:12 10° SW 04:42:51 88° NW 04:47:29 10° NE visible
17 May - 06:21:12 10° WNW 06:25:11 28° NNW 06:29:09 10° NE visible
17 May - 08:04:36 10° NW 08:08:08 21° N 08:11:41 10° NE visible
17 May - 09:46:35 10° NW 09:50:55 41° NNE 09:55:13 10° E visible
17 May - 11:28:30 10° WNW 11:32:49 44° SW 11:37:07 10° SSE daylight
18 May - 03:18:25 10° SSW 03:22:39 35° SE 03:26:51 10° ENE night (unlit)
18 May - 04:59:57 10° WSW 05:04:27 48° NNW 05:08:55 10° NE visible
18 May - 06:43:29 10° WNW 06:47:07 22° N 06:50:44 10° NE visible
18 May - 08:26:17 10° NW 08:30:07 25° NNE 08:33:55 10° ENE visible
18 May - 10:07:59 10° NW 10:12:33 72° NNE 10:17:06 10° ESE visible
18 May - 11:50:43 10° W 11:54:03 20° SW 11:57:22 10° S daylight
19 May - 02:00:47 10° SSE 02:02:44 12° SE 02:04:40 10° ESE visible
19 May - 03:39:22 10° SW 03:44:00 75° SE 03:48:37 10° ENE visible
19 May - 05:22:05 10° W 05:26:13 31° NNW 05:30:19 10° NE visible
19 May - 07:05:36 10° NW 07:09:08 21° N 07:12:39 10° NE visible
19 May - 08:47:45 10° NW 08:51:58 35° NNE 08:56:11 10° E visible
19 May - 10:29:33 10° WNW 10:34:01 56° SW 10:38:27 10° SE daylight
20 May - 02:19:54 10° SSW 02:23:52 28° SE 02:27:49 10° ENE visible
20 May - 04:00:57 10° WSW 04:05:32 57° NNW 04:10:06 10° NE visible
20 May - 05:44:22 10° WNW 05:48:07 24° N 05:51:50 10° NE visible
20 May - 07:27:24 10° NW 07:31:08 24° N 07:34:50 10° ENE visible
20 May - 09:09:09 10° NW 09:13:41 60° NNE 09:18:11 10° ESE visible
20 May - 10:51:32 10° WNW 10:55:18 26° SW 10:59:03 10° S daylight
21 May - 02:40:34 10° SW 02:45:10 60° SE 02:49:44 10° ENE visible
21 May - 04:22:59 10° W 04:27:15 35° NNW 04:31:30 10° NE visible
21 May - 06:06:34 10° NW 06:10:07 21° N 06:13:38 10° NE visible
21 May - 07:48:55 10° NW 07:53:02 31° NNE 07:57:06 10° E visible
21 May - 09:30:39 10° WNW 09:35:12 71° SW 09:39:43 10° SE visible
21 May - 11:15:05 10° WSW 11:16:24 11° SW 11:17:44 10° SW daylight
22 May - 01:21:30 10° S 01:25:06 22° SE 01:28:40 10° E daylight
22 May - 03:01:59 10° WSW 03:06:39 70° NNW 03:11:16 10° NE visible
22 May - 04:45:15 10° WNW 04:49:07 25° NNW 04:52:57 10° NE visible
22 May - 06:28:27 10° NW 06:32:07 23° N 06:35:45 10° ENE visible
22 May - 08:10:19 10° NW 08:14:47 50° NNE 08:19:12 10° ESE visible
22 May - 09:52:27 10° WNW 09:56:32 33° SW 10:00:35 10° SSE visible
23 May - 01:41:51 10° SSW 01:46:20 47° SE 01:50:48 10° ENE visible
23 May - 03:23:54 10° W 03:28:18 40° NNW 03:32:41 10° NE visible
23 May - 05:07:30 10° NW 05:11:05 22° N 05:14:40 10° NE visible
23 May - 06:50:03 10° NW 06:54:03 28° NNE 06:58:01 10° ENE visible
23 May - 08:31:45 10° WNW 08:36:21 88° SW 08:40:54 10° SE visible
23 May - 10:15:08 10° W 10:17:41 15° SW 10:20:13 10° SSW visible
